Chicago, IL

8:10 AM CDT on June 25, 2017 (GMT -0500)
Chicago-O'Hare International

Weather History for KORD - July, 2013

Change the Weather History Date:

Monday, July 8, 2013

  Actual Average Record
Temperature  
Mean Temperature 78 °F 74 °F  
Max Temperature 86 °F 84 °F 99 °F (1955)
Min Temperature 70 °F 64 °F 48 °F (1984)
Degree Days  
Heating Degree Days 0 0  
Month to date heating degree days 1 0  
Since 1 June heating degree days 44 48  
Since 1 July heating degree days 1 0  
Cooling Degree Days 13 9  
Month to date cooling degree days 52 71  
Year to date cooling degree days 292 290  
Since 1 June cooling degree days 208 236  
Growing Degree Days 28 (Base 50)    
Moisture  
Dew Point 71 °F    
Average Humidity 76    
Maximum Humidity 87    
Minimum Humidity 65    
Precipitation  
Precipitation 0.50 in 0.11 in 2.41 in (1951)
Month to date precipitation 0.52 0.84  
Year to date precipitation 28.98 17.37  
Snow  
Snow 0.00 in 0.00 in 0.00 in ()
Month to date snowfall 0.0 0.0  
Since 1 June snowfall 0.0 0.0  
Since 1 July snowfall 0.0 0.0  
Snow Depth 0.00 in    
Sea Level Pressure  
Sea Level Pressure 29.96 in    
Wind  
Wind Speed 8 mph (SW)    
Max Wind Speed 22 mph    
Max Gust Speed 29 mph    
Visibility 9 miles    
Events Rain , Thunderstorm    
T = Trace of Precipitation, MM = Missing Value Source: NWS Daily Summary

Daily Weather History Graph

Daily Weather History Graph

Search for Another Location

Airport or City:

Trip Planner

Search our weather history database for the weather conditions in past years. The results will help you decide how hot, cold, wet, or windy it might be!

Date:

Astronomy

Jul. 08, 2013 Rise Set
Actual Time 5:24 AM CDT 8:28 PM CDT
Civil Twilight 4:50 AM CDT 9:02 PM CDT
Nautical Twilight 4:07 AM CDT 9:45 PM CDT
Astronomical Twilight 3:15 AM CDT 10:36 PM CDT
Moon 5:54 AM CDT (7/8) 8:29 PM CDT (7/8)
Length of Visible Light 16h 12m
Length of Day
15h 04m
New Moon, 0% of the Moon is Illuminated
Jul 8
New Moon
Jul 15
First Quarter
Jul 22
Full
Jul 29
Last Quarter
Aug 6
New

Hourly Weather History & Observations

Time (CDT) Temp. Heat Index Dew Point Humidity Pressure Visibility Wind Dir Wind Speed Gust Speed Precip Events Conditions
12:51 AM 78.1 °F - 70.0 °F 76% 29.98 in 10.0 mi SSW 5.8 mph - N/A   Scattered Clouds
1:51 AM 78.1 °F - 70.0 °F 76% 29.97 in 10.0 mi SSW 6.9 mph - N/A   Mostly Cloudy
2:51 AM 79.0 °F - 70.0 °F 74% 29.95 in 10.0 mi SW 8.1 mph - N/A   Mostly Cloudy
3:51 AM 78.1 °F - 70.0 °F 76% 29.95 in 10.0 mi SW 9.2 mph - N/A   Overcast
4:51 AM 77.0 °F - 70.0 °F 79% 29.94 in 10.0 mi SSW 8.1 mph - N/A   Mostly Cloudy
5:51 AM 77.0 °F - 70.0 °F 79% 29.95 in 10.0 mi SW 9.2 mph - N/A   Overcast
6:51 AM 78.1 °F - 69.1 °F 74% 29.97 in 10.0 mi West 13.8 mph 24.2 mph 0.00 in Rain Light Rain
7:51 AM 73.9 °F - 69.1 °F 85% 29.97 in 10.0 mi WSW 10.4 mph - 0.01 in Rain Light Rain
8:51 AM 73.9 °F - 70.0 °F 87% 29.97 in 10.0 mi SW 9.2 mph - 0.00 in   Overcast
9:51 AM 71.1 °F - 70.0 °F 96% 30.03 in 4.0 mi WSW 8.1 mph - 0.07 in Rain Heavy Rain
9:56 AM 71.6 °F - 69.8 °F 94% 30.03 in 2.0 mi WSW 9.2 mph - 0.17 in Rain , Thunderstorm Heavy Thunderstorms and Rain
10:12 AM 71.6 °F - 69.8 °F 94% 30.03 in 5.0 mi SW 5.8 mph - 0.28 in Rain , Thunderstorm Thunderstorms and Rain
10:51 AM 70.0 °F - 69.1 °F 97% 29.99 in 6.0 mi South 5.8 mph - 0.38 in Rain , Thunderstorm Thunderstorms and Rain
11:15 AM 71.6 °F - 69.8 °F 94% 30.00 in 10.0 mi South 10.4 mph - 0.03 in Rain Light Rain
11:51 AM 72.0 °F - 69.1 °F 91% 29.98 in 10.0 mi SW 9.2 mph - 0.04 in   Mostly Cloudy
12:51 PM 73.0 °F - 70.0 °F 90% 29.96 in 10.0 mi SSW 10.4 mph 18.4 mph N/A   Overcast
1:51 PM 79.0 °F - 72.0 °F 79% 29.94 in 10.0 mi SSW 12.7 mph - N/A   Mostly Cloudy
2:51 PM 84.0 °F 90.2 °F 73.0 °F 69% 29.92 in 10.0 mi SSW 18.4 mph 21.9 mph N/A   Mostly Cloudy
3:51 PM 84.0 °F 89.6 °F 72.0 °F 67% 29.93 in 10.0 mi WSW 13.8 mph 21.9 mph N/A   Overcast
4:51 PM 84.9 °F 91.4 °F 73.0 °F 67% 29.92 in 10.0 mi West 12.7 mph - N/A   Mostly Cloudy
5:51 PM 84.0 °F 91.9 °F 75.0 °F 74% 29.91 in 10.0 mi West 8.1 mph - 0.00 in   Mostly Cloudy
6:51 PM 84.0 °F 91.9 °F 75.0 °F 74% 29.91 in 10.0 mi WSW 6.9 mph - N/A   Mostly Cloudy
7:51 PM 82.9 °F 90.2 °F 75.0 °F 77% 29.93 in 10.0 mi WSW 6.9 mph - N/A   Mostly Cloudy
8:51 PM 82.0 °F 87.4 °F 73.0 °F 74% 29.94 in 10.0 mi WSW 9.2 mph - N/A   Mostly Cloudy
9:51 PM 81.0 °F 85.8 °F 73.0 °F 77% 29.95 in 10.0 mi WSW 4.6 mph - N/A   Scattered Clouds
10:51 PM 81.0 °F 85.8 °F 73.0 °F 77% 29.98 in 10.0 mi Calm Calm - N/A   Mostly Cloudy
11:51 PM 78.1 °F - 73.0 °F 84% 29.97 in 10.0 mi Calm Calm - N/A   Mostly Cloudy